Location: Arbon
(43.0005°N, 0.7472°E)
Time: 10:02:09
(UTC+00:00)

SR - Pass Details

Date: 04 December 2020
Orbit: 575 x 880 km, 66.7° (Epoch: 21 January)

Event Time Altitude Azimuth Distance (km) Brightness Sun altitude
Rises 02:32:52 0° 323° (NW) 3,238 - -50.0°
Reaches altitude 10° 02:35:16 10° 317° (NW) 2,353 - -49.6°
Maximum altitude 02:40:26 45° 246° (WSW) 1,111 - -48.7°
Drops below altitude 10° 02:45:55 10° 175° (S) 2,489 - -47.7°
Sets 02:48:31 0° 169° (S) 3,443 - -47.3°
